Regional Weather Roundup
Issued by NWS

Home | Current Version | Previous Version | Graphics & Text | Print | Product List | Glossary On
Versions: 1 2 3 4 5 6 7 8 9 10 11 12 13 14 15 16 17 18 19 20 21 22 23 24 25 26 27 28 29 30 31 32 33 34 35 36 37 38 39 40 41 42 43 44 45 46 47 48 49 50
000
ASUS43 KTOP 200759
RWRKS

WEATHER ROUNDUP FOR KANSAS
NATIONAL WEATHER SERVICE GOODLAND KS
300 AM CDT FRI OCT 20 2017

NOTE:  "FAIR" INDICATES FEW OR NO CLOUDS BELOW 12,000 FEET WITH NO
SIGNIFICANT WEATHER AND/OR OBSTRUCTIONS TO VISIBILITY.

KSZ001>006-013>018-027>032-041>047-200900-
NORTHWEST KANSAS

CITY           SKY/WX    TMP DP  RH WIND       PRES   REMARKS
GOODLAND       MOCLDY    56  47  71 S21G30    29.84F
HAYS           FAIR      60  48  64 S15       29.94F
HILL CITY      FAIR      61  47  59 S14G24    29.91F
RUSSELL        FAIR      58  51  78 S17       29.94F
$$

KSZ061>065-074>080-084>089-200900-
SOUTHWEST KANSAS

CITY           SKY/WX    TMP DP  RH WIND       PRES   REMARKS
DODGE CITY     FAIR      57  46  66 S17       29.96F
ELKHART          N/A     59  53  80 S16         N/A
GARDEN CITY    FAIR      57  46  66 S14       29.92F
GREAT BEND     FAIR      61  49  64 S18       29.97F
LIBERAL        CLOUDY    62  49  62 S17       29.95F
$$

KSZ066>073-081>083-090>101-200900-
SOUTHEAST KANSAS

CITY           SKY/WX    TMP DP  RH WIND       PRES   REMARKS
CHANUTE        FAIR      56  52  86 SE9       30.10F
COFFEYVILLE    FAIR      54  51  90 SE7       30.10F
HUTCHINSON     FAIR      59  54  83 SE12      30.02F
MEDICINE LODGE   N/A     56  49  77 E7        30.02F
NEWTON         FAIR      59  53  80 S14       30.04F
PARSONS        FAIR      57  52  83 SE3       30.11F
WICHITA INTL   FAIR      58  55  90 S9        30.04S
WICHITA JABRA  FAIR      59  55  87 S15       30.04F
WICHITA MCCONL CLEAR     57  52  85 S9        30.04F
WINFIELD       FAIR      59  55  87 SE6       30.07F
$$

KSZ007>012-019>026-033>040-048>060-102>105-200900-
NORTHEAST KANSAS

CITY           SKY/WX    TMP DP  RH WIND       PRES   REMARKS
CONCORDIA      FAIR      60  53  77 S21G28    29.97F
EMPORIA        FAIR      57  52  83 S12       30.06F
LAWRENCE       FAIR      59  53  80 S9        30.07S
MANHATTAN      FAIR      62  54  74 S8        30.02F
OLATHE IND     FAIR      54  51  90 S7        30.09S
OLATHE EXE     FAIR      57  52  83 S9        30.09S
SALINA         FAIR      63  54  72 S14G22    30.00S
TOPEKA BILLARD FAIR      62  55  77 S13       30.05S
TOPEKA FORBES  FAIR      61  54  77 S12       30.06S
$$




USA.gov is the U.S. government's official web portal to all federal, state and local government web resources and services.